Content
SEND FEEDBACK

Daily
Averages
Monthly
Summary
United States of America

WICHITA, KANSAS


Home > North America > United States > Kansas
Elevation: 1321 feet     Latitude: 37 39N     Longitude: 097 26W

WEATHER
 
SELECT A DAY
Number of Records: 195,701;   Date Range: 1/1/95 - 11/26/14
 
SHARE

PRINT THIS DATA

[ ← Previous Day ]
WEATHER ALMANAC - FEBRUARY 25, 2013
[ Next Day → ]
[ °C ]   °F
Weather ElementAverageHighLow
Temperature33.9 °F37 °F (1:53 am)32 °F (12:15 pm)
Dewpoint31.2 °F34 °F (2:53 pm)28.4 °F (11:29 am)
Humidity90.4 %100 % (2:53 pm)78 % (7:53 am)
Barometer29.80 in29.88 in (1:53 am)29.67 in (6:08 pm)
Wind Speed20.3 mph31.1 mph (5:53 pm)
Wind Gust41.4 mph (5:53 pm)
Weather ElementAverage
Visibility2.7 mi
Wind DirectionE (91.5 °)

Weather ElementTotal
Precipitation0.56 in
Heating Degree Days30.5 (Base 65)
Averaged from 47 records on February 25, 2013
WEATHER CONDITIONS BREAKOUT
WIND DIRECTION BREAKOUT
WEATHER BY HOUR - FEBRUARY 25, 2013
[ °C ]   °F
Local TimeTemperatureDewpointHumidityBarometerVisibilityWind DirectionWind SpeedGust SpeedPrecipitationEventsConditions
1:53 AM37.0 °F30.9 °F79 %29.88 in9.0 miNNE (20°)13.8 mphOvercast
2:53 AM36.0 °F30.0 °F79 %29.86 in9.0 miNorth (10°)11.5 mphOvercast
3:53 AM35.1 °F30.0 °F82 %29.88 in7.0 miNNE (20°)13.8 mph0.00 inOvercast
4:07 AM35.6 °F30.2 °F81 %29.87 in7.0 miNorth (10°)11.5 mph0.00 inSnowLight Ice Pellets
4:50 AM35.6 °F30.2 °F81 %29.86 in2.5 miNNE (20°)13.8 mph0.00 inSnowLight Snow
4:53 AM34.0 °F30.0 °F85 %29.88 in2.0 miNNE (20°)13.8 mph0.00 inSnowLight Snow
5:00 AM33.8 °F30.2 °F87 %29.86 in1.8 miNNE (30°)15.0 mph0.00 inSnowLight Snow
5:07 AM33.8 °F30.2 °F87 %29.86 in1.8 miNNE (30°)17.3 mph0.00 inSnowLight Snow
5:23 AM33.8 °F30.2 °F87 %29.85 in2.0 miNNE (20°)17.3 mph24.2 mph0.00 inSnowLight Snow
5:34 AM33.8 °F30.2 °F87 %29.85 in5.0 miNNE (20°)17.3 mph0.01 inRainLight Ice Pellets
5:53 AM34.0 °F30.0 °F85 %29.86 in5.0 miNorth (10°)17.3 mph0.01 inRainLight Rain
6:32 AM33.8 °F30.2 °F87 %29.84 in7.0 miNNE (20°)17.3 mph24.2 mph0.01 inRainLight Rain
6:53 AM34.0 °F30.0 °F85 %29.87 in7.0 miNNE (20°)17.3 mph24.2 mph0.02 inRainLight Rain
7:53 AM35.1 °F28.9 °F78 %29.87 in8.0 miNNE (30°)18.4 mph0.01 inOvercast
8:53 AM34.0 °F28.9 °F82 %29.88 in6.0 miNNE (20°)17.3 mph27.6 mph0.00 inSnowLight Snow
9:53 AM34.0 °F28.9 °F82 %29.84 in7.0 miNorth (10°)18.4 mph27.6 mph0.00 inOvercast
10:53 AM34.0 °F28.9 °F82 %29.84 in7.0 miNE (40°)20.7 mph28.8 mphOvercast
11:29 AM33.8 °F28.4 °F81 %29.82 in1.0 miNNE (20°)24.2 mph0.00 inSnowLight Snow
11:37 AM33.8 °F28.4 °F81 %29.82 in1.0 miNNE (30°)26.5 mph33.4 mph0.00 inSnowLight Snow
11:47 AM33.8 °F30.2 °F87 %29.82 in0.8 miNNE (30°)18.4 mph29.9 mph0.00 inSnowLight Snow
11:53 AM33.1 °F30.0 °F89 %29.85 in0.8 miNNE (30°)24.2 mph32.2 mph0.00 inSnowLight Snow
11:56 AM33.8 °F30.2 °F87 %29.82 in0.5 miNNE (20°)21.9 mph32.2 mph0.00 inFog-SnowSnow
12:06 PM33.8 °F30.2 °F87 %29.81 in0.2 miNNE (30°)20.7 mph0.00 inFog-SnowHeavy Snow
12:15 PM32.0 °F30.2 °F93 %29.81 in0.2 miNNE (20°)21.9 mph28.8 mph0.01 inFog-SnowHeavy Snow
12:38 PM32.0 °F30.2 °F93 %29.80 in0.2 miNNE (20°)19.6 mph29.9 mph0.03 inFog-SnowHeavy Snow
12:45 PM32.0 °F30.2 °F93 %29.79 in0.2 miNNE (20°)24.2 mph31.1 mph0.03 inFog-SnowHeavy Snow
12:50 PM33.8 °F30.2 °F87 %29.79 in0.5 miNNE (20°)21.9 mph31.1 mph0.03 inFog-SnowSnow
12:53 PM33.1 °F30.9 °F92 %29.81 in0.5 miNNE (20°)24.2 mph33.4 mph0.04 inFog-SnowSnow
1:53 PM33.1 °F32.0 °F96 %29.77 in0.5 miNNE (20°)21.9 mph34.5 mph0.00 inFog-SnowSnow
2:53 PM34.0 °F34.0 °F100 %29.74 in3.0 miNNE (20°)27.6 mph36.8 mph0.00 inSnowLight Snow
3:45 PM33.8 °F33.8 °F100 %29.70 in2.5 miNNE (20°)24.2 mph35.7 mph0.00 inSnowLight Snow
3:53 PM34.0 °F33.1 °F96 %29.73 in2.5 miNNE (20°)20.7 mph35.7 mph0.00 inSnowLight Snow
4:23 PM35.6 °F33.8 °F93 %29.70 in4.0 miNorth (10°)24.2 mph33.4 mph0.00 inOvercast
4:53 PM35.1 °F33.1 °F92 %29.71 in5.0 miNorth (10°)26.5 mph33.4 mph0.00 inOvercast
5:53 PM34.0 °F33.1 °F96 %29.69 in2.0 miNorth (10°)31.1 mph41.4 mph0.00 inSnowLight Snow
6:08 PM33.8 °F33.8 °F100 %29.67 in1.5 miNorth (10°)25.3 mph33.4 mph0.00 inSnowLight Snow
6:53 PM34.0 °F34.0 °F100 %29.73 in1.2 miNorth (360°)23.0 mph33.4 mph0.02 inSnowLight Snow
7:41 PM33.8 °F33.8 °F100 %29.73 in0.8 miNorth (10°)18.4 mph0.04 inSnowLight Snow
7:53 PM33.1 °F33.1 °F100 %29.76 in0.5 miNorth (360°)18.4 mph26.5 mph0.05 inFog-SnowSnow
8:11 PM33.8 °F33.8 °F100 %29.73 in0.5 miNorth (360°)18.4 mph27.6 mph0.02 inFog-SnowSnow
8:24 PM33.8 °F33.8 °F100 %29.73 in0.2 miNorth (360°)21.9 mph28.8 mph0.04 inFog-SnowHeavy Snow
8:45 PM33.8 °F33.8 °F100 %29.73 in0.5 miNorth (360°)19.6 mph31.1 mph0.06 inFog-SnowSnow
8:53 PM33.1 °F33.1 °F100 %29.76 in0.5 miNorth (360°)21.9 mph29.9 mph0.06 inFog-SnowSnow
9:43 PM33.8 °F32.0 °F93 %29.73 in1.0 miNorth (350°)21.9 mph32.2 mph0.02 inSnowLight Snow
9:53 PM33.1 °F32.0 °F96 %29.76 in0.8 miNorth (350°)23.0 mph31.1 mph0.02 inSnowLight Snow
10:53 PM32.0 °F32.0 °F100 %29.75 in0.8 miNorth (350°)24.2 mph35.7 mph0.01 inSnowLight Snow
11:53 PM32.0 °F32.0 °F100 %29.75 in0.5 miNorth (350°)24.2 mph36.8 mph0.02 inSnowSnow
Hourly data recorded from KICT, located miles away from Wichita, Kansas







STORIES FROM OUR PARTNERS